This is the latest recevied weather packets stored in our database for station/object W2OBX. If no packets are shown the sender has not sent any weather packets the latest 10 day(s).
| Time | Temp. | Humidity | Pressure | Rain* | Wind** | Luminosity | Snow |
|---|---|---|---|---|---|---|---|
| 1777928592 | 25.56° C | 39% | 1013 hPa | 0 mm | - | 47 W/m² | - |
| 1777928289 | 26.11° C | 40% | 1013.1 hPa | 0 mm | - | 306 W/m² | - |
| 1777927987 | 25.56° C | 39% | 1013.1 hPa | 0 mm | - | 516 W/m² | - |
| 1777927685 | 25.56° C | 44% | 1013.2 hPa | 0 mm | - | 77 W/m² | - |
| 1777927383 | 25.56° C | 39% | 1013.2 hPa | 0 mm | - | 168 W/m² | - |
| 1777927082 | 25.56° C | 38% | 1013.1 hPa | 0 mm | - | 439 W/m² | - |
| 1777926779 | 25.56° C | 40% | 1013.2 hPa | 0 mm | - | 519 W/m² | - |
| 1777926479 | 25.56° C | 43% | 1013.3 hPa | 0 mm | - | 41 W/m² | - |
| 1777926176 | 25.56° C | 42% | 1013.3 hPa | 0 mm | - | 44 W/m² | - |
| 1777925873 | 25° C | 42% | 1013.6 hPa | 0 mm | - | 61 W/m² | - |
| 1777925570 | 25° C | 46% | 1013.4 hPa | 0 mm | - | 39 W/m² | - |
| 1777925268 | 25.56° C | 42% | 1013.5 hPa | 0 mm | - | 184 W/m² | - |
| 1777924963 | 25.56° C | 40% | 1013.4 hPa | 0 mm | - | 44 W/m² | - |
| 1777924660 | 25.56° C | 40% | 1013.7 hPa | 0 mm | - | 181 W/m² | - |
| 1777924356 | 25.56° C | 43% | 1013.8 hPa | 0 mm | - | 659 W/m² | - |
| 1777924054 | 26.11° C | 43% | 1013.8 hPa | 0 mm | - | 670 W/m² | - |
| 1777923749 | 26.11° C | 43% | 1013.9 hPa | 0 mm | - | 579 W/m² | - |
| 1777923446 | 26.11° C | 41% | 1014 hPa | 0 mm | - | 675 W/m² | - |
| 1777923144 | 25.56° C | 43% | 1014.1 hPa | 0 mm | - | 639 W/m² | - |
| 1777922842 | 25.56° C | 46% | 1014.1 hPa | 0 mm | - | 55 W/m² | - |
| 1777922540 | 25.56° C | 46% | 1014.3 hPa | 0 mm | - | 343 W/m² | - |
| 1777922238 | 25.56° C | 45% | 1014.3 hPa | 0 mm | - | 374 W/m² | - |
| 1777921935 | 25.56° C | 45% | 1014.7 hPa | 0 mm | - | 730 W/m² | - |
| 1777921630 | 25° C | 43% | 1014.5 hPa | 0 mm | - | 716 W/m² | - |
| 1777921326 | 25° C | 42% | 1014.5 hPa | 0 mm | - | 739 W/m² | - |
* Rain latest hour (hover to see other rain measurements)
** Current wind speed in m/s (hover to see current wind gust speed)